Notices

What's New in latest Release from April 7th, 2021:

- Updated Glossary, including Speed of Maximum Gust, and Total Hourly Precipitation

- Updated national and regional climate services offices contacts and prices information

- Addition of station inventory lists for 1981-2010, 1971-2000, and 1961-1990 Normals.

If you haven't already, please take our survey and provide feedback about our website: https://eccc.sondage-survey.ca/f/LanguageSelection.aspx?s=442ca660-fcf1-47c0-95a9-59707d6fd709

Hourly Data Report for April 12, 2016

MIRAMICHI RCS
NEW BRUNSWICK

47°00'34.000" N
65°27'54.000" W
33.00 m
8100989
71744
ACQ

Download Data

Hourly Data (April 2016)
Hourly Data Report for April 12, 2016
TIME
LST
Temp Definition
°C
Dew Point Definition
°C
Rel Hum Definition
%
Precip. Amount Definition
mm

Wind Dir Definition
10's deg

Wind Spd Definition
km/h
Visibility Definition
km
Stn Press Definition
kPa
Hmdx Definition


Wind Chill Definition


Weather Definition


00:00 3.5 2.3 92 0.5 15 11   101.49     LegendNANA
01:00 4.0 3.0 94 0.2 14 8   101.37     LegendNANA
02:00 4.7 3.8 94 0.3 16 9   101.30     LegendNANA
03:00 5.4 4.5 94 1.3 19 7   101.25     LegendNANA
04:00 5.7 4.9 95 0.3 17 8   101.24     LegendNANA
05:00 6.1 5.4 95 0.7 18 5   101.24     LegendNANA
06:00 6.7 6.0 95 0.0 17 10   101.24     LegendNANA
07:00 7.7 7.0 95 0.0 18 11   101.26     LegendNANA
08:00 8.4 7.5 94 0.2 16 8   101.25     LegendNANA
09:00 9.2 8.2 94 0.0 18 11   101.20     LegendNANA
10:00 9.5 8.6 94 0.0 17 13   101.13     LegendNANA
11:00 11.2 9.8 91 0.0 18 22   101.04     LegendNANA
12:00 12.0 10.1 88 0.0 20 26   101.02     LegendNANA
13:00 12.6 10.5 87 0.0 19 28   100.94     LegendNANA
14:00 13.5 10.6 83 0.0 20 34   100.92     LegendNANA
15:00 12.8 10.5 86 0.0 20 30   100.96     LegendNANA
16:00 11.9 10.4 90 0.9 19 24   100.97     LegendNANA
17:00 11.7 10.2 90 0.5 19 25   100.98     LegendNANA
18:00 11.2 9.9 91 0.7 18 25   100.99     LegendNANA
19:00 11.3 9.8 91 0.0 20 23   100.97     LegendNANA
20:00 10.8 9.5 92 0.3 19 19   100.97     LegendNANA
21:00 8.8 7.2 90 1.1 27 18   101.05     LegendNANA
22:00 6.2 5.0 92 2.3 26 12   101.17     LegendNANA
23:00 5.1 3.6 90 1.7 27 12   101.24     LegendNANA

Notes on Data Quality.

Legend

  • E = Estimated
  • M = Missing
  • NA = Not Available*
  • [empty] = Indicates an unobserved value
Date modified: